Wind_Speed
12 9 10 11 8 4 7 15 18 18 18 12 10 16 22 16 13 11 22 29 27 24 18 16 16 15 14 11 10 8 10 11 10 10 11 11 11 11 12 11 11 11 11 10 10 10 6 7 6
10 13 16 4 7 4 10 20 19 13 9 13 20 19 20 18 15 15 22 29 25 21 19 17 17 15 13 12 9 10 10 10 10 11 11 11 12 12 12 13 13 12 11 10 10 10 10 8 7
11 11 7 6 1 4 3 21 16 16 10 23 21 21 17 17 12 17 28 25 22 22 19 18 17 15 11 9 10 10 10 10 10 10 11 11 13 13 13 14 13 12 11 11 11 12 11 9 8
9 9 7 10 23 10 17 14 16 15 16 18 18 14 16 20 14 23 23 23 22 19 17 20 16 13 10 11 11 10 10 9 10 9 10 12 13 13 13 13 13 12 11 12 10 12 12 11 10
17 7 13 16 12 11 13 10 10 18 17 19 21 18 18 20 22 21 21 19 22 21 18 17 16 12 10 12 11 10 9 9 9 9 11 12 13 13 14 13 13 12 12 11 11 11 11 10 9
8 8 14 9 15 12 8 11 10 17 17 18 19 19 17 17 20 20 19 19 25 20 19 17 17 11 11 12 11 10 9 8 8 9 11 12 13 14 14 12 12 12 10 11 10 10 10 10 9
13 13 20 5 11 9 9 20 4 17 12 10 20 19 13 14 19 19 19 23 22 22 18 16 14 13 12 12 11 10 9 8 9 9 11 11 13 14 14 11 10 10 9 8 8 8 8 8 8
14 14 24 12 12 15 7 16 19 10 10 4 18 8 16 15 16 16 20 17 24 22 19 18 15 14 13 12 11 10 9 9 9 9 9 10 10 10 11 10 8 7 7 6 7 6 5 6 7
18 11 14 14 11 11 9 13 15 12 11 13 15 18 23 21 17 19 19 18 18 21 19 22 17 14 14 12 11 10 9 8 8 9 7 5 3 6 6 6 6 5 4 4 4 3 3 4 4
12 11 21 12 11 7 14 9 16 21 8 17 19 20 22 19 17 17 17 17 16 18 18 21 21 19 21 13 11 9 8 6 6 3 1 3 3 3 1 3 6 6 4 4 4 5 8 8 8
15 16 6 8 11 1 18 15 10 19 10 11 18 18 17 16 14 15 15 17 16 15 13 19 15 13 17 17 13 14 9 12 8 8 4 3 2 2 7 6 5 2 4 3 1 4 7 10 6
15 7 7 9 7 5 8 11 20 17 14 15 19 19 17 16 13 15 14 14 16 16 12 17 14 10 11 17 11 16 12 13 10 9 6 4 3 2 3 5 5 6 5 6 3 3 3 5 7
10 6 3 3 6 2 4 12 11 14 20 21 19 18 16 15 16 16 16 14 15 16 12 15 14 12 8 10 10 9 9 7 7 8 5 6 4 1 1 4 3 1 4 6 2 1 4 3 9
13 5 7 5 8 3 7 13 13 15 17 20 18 18 15 14 16 17 17 17 17 17 15 13 13 15 9 7 5 7 3 7 5 4 10 3 3 1 1 3 3 2 1 3 4 2 4 12 7
10 6 6 7 5 4 10 10 16 15 16 18 17 16 15 16 20 20 18 18 14 19 19 16 14 14 14 10 6 6 7 6 7 9 8 4 4 4 5 4 3 2 3 2 2 4 7 10 11
9 10 11 13 8 3 9 10 19 17 17 16 18 16 16 14 20 19 19 22 20 18 26 19 15 16 14 12 10 10 9 7 3 5 4 6 5 4 4 6 3 3 3 4 5 4 8 10 11
14 12 17 12 11 8 12 12 17 15 15 18 16 14 14 13 12 16 17 15 22 17 27 23 17 19 17 14 11 10 5 10 5 7 7 9 6 6 6 5 4 2 5 6 6 5 8 12 14
15 17 14 12 11 12 11 14 13 14 16 11 16 15 13 13 11 12 12 14 16 20 20 24 20 14 21 16 14 11 9 6 8 8 9 7 6 6 6 6 5 3 7 8 8 10 11 17 15
18 18 19 9 12 11 14 9 15 12 10 18 14 14 16 15 14 12 10 9 14 16 22 20 24 22 22 18 15 14 12 12 11 9 6 9 8 6 10 5 5 7 7 8 13 9 10 11 11
21 16 12 18 17 12 12 8 16 15 11 13 19 18 18 17 15 15 16 14 13 16 19 22 23 26 21 19 17 12 14 11 11 8 8 6 6 7 8 9 9 11 8 10 9 8 12 13 13
18 16 14 12 10 7 16 10 11 13 13 12 10 11 17 19 18 16 18 18 18 19 21 21 21 24 25 18 16 9 4 5 8 11 10 9 7 7 9 8 8 9 7 8 13 13 14 16 15
13 17 18 16 12 11 14 11 15 14 14 10 9 8 8 14 17 20 20 20 18 18 19 19 21 23 23 21 17 12 14 11 6 10 8 5 7 8 8 9 9 10 10 11 10 13 14 16 18
16 19 17 10 13 13 17 9 12 16 17 16 15 16 14 14 13 12 17 21 19 18 20 19 21 22 22 22 16 17 15 9 8 6 3 7 10 10 9 12 12 12 12 14 14 14 15 18 17
21 20 15 11 11 12 14 7 4 10 9 15 18 17 14 12 13 13 15 21 20 20 21 21 22 23 23 25 22 18 13 8 9 8 5 10 16 14 15 13 12 15 16 16 18 15 20 16 20
21 9 7 10 11 10 17 14 5 20 15 7 11 13 15 12 12 12 15 18 20 22 24 24 25 24 25 24 23 18 13 9 7 10 10 5 5 11 16 14 15 14 13 15 16 19 20 22 22
19 15 11 13 10 14 16 9 5 16 15 9 5 14 14 12 12 11 11 16 20 22 24 25 26 24 24 22 21 18 15 10 12 14 12 11 10 3 2 10 11 14 14 17 18 21 24 24 25
13 18 19 13 13 7 6 5 9 2 9 8 9 14 12 10 13 12 15 19 22 24 25 23 23 21 21 20 19 17 14 11 11 10 12 11 12 9 8 7 12 14 16 18 19 23 27 25 28
15 14 10 9 10 6 8 10 11 14 10 6 9 13 11 12 5 15 22 13 35 33 33 17 21 20 20 19 18 15 12 11 13 9 6 10 9 8 14 17 16 17 18 19 21 25 27 29 31
16 15 10 11 6 8 7 3 8 8 9 12 13 11 13 13 14 15 18 22 13 30 35 20 26 23 21 16 17 14 11 10 7 5 10 11 14 13 12 13 12 15 17 17 20 25 27 27 27
16 16 12 7 7 9 2 9 11 3 3 1 10 9 8 10 10 10 22 26 20 27 26 33 39 28 22 15 13 8 9 6 4 12 11 11 10 12 13 11 11 13 15 18 21 24 25 26 27
Wind_Direction
265 272 254 264 43 304 283 74 56 52 67 61 39 77 68 39 50 114 126 108 115 121 127 127 128 130 123 112 117 117 99 92 88 81 77 70 60 54 54 53 51 49 48 43 54 36 49 65 62
265 272 250 283 124 299 301 78 72 75 63 102 43 56 73 67 91 112 109 110 113 122 130 131 131 126 126 136 137 111 103 97 88 81 78 70 65 63 60 54 51 49 48 51 55 60 72 69 63
273 263 260 212 229 166 79 80 92 75 54 82 76 56 70 87 118 116 111 113 118 128 132 139 130 133 139 143 118 112 104 93 84 83 81 79 77 70 63 58 50 45 47 58 62 69 72 75 73
264 221 238 237 196 132 74 86 86 95 81 87 97 79 76 99 99 117 121 119 127 127 133 134 134 142 147 129 124 116 109 97 92 90 88 85 78 71 64 56 53 50 61 61 70 76 78 76 75
244 271 253 250 122 89 69 63 75 91 84 70 89 91 88 107 117 122 119 129 134 122 134 135 144 149 143 132 130 123 111 102 98 94 90 84 76 67 60 57 57 62 73 69 74 78 75 71 65
247 250 262 273 87 93 105 109 80 90 105 120 113 99 100 124 130 139 144 144 125 130 141 141 152 151 147 137 135 123 118 110 103 100 99 87 77 68 60 57 66 75 83 82 79 74 72 66 56
254 267 273 117 123 135 97 90 99 74 79 92 108 113 125 154 148 149 150 135 128 135 142 145 150 158 152 148 142 138 132 122 114 112 103 93 86 74 64 59 68 79 80 83 80 73 60 56 39
245 274 283 34 108 107 117 95 97 106 78 53 135 128 149 143 166 150 140 139 137 143 152 153 156 157 149 150 151 146 135 130 120 116 110 109 92 74 63 51 71 73 71 81 79 72 67 33 50
255 278 285 135 165 125 176 106 86 111 104 70 100 130 126 164 167 152 139 149 147 146 156 151 155 164 159 158 158 155 148 140 127 118 112 137 173 103 87 57 68 79 64 64 71 46 19 24 94
231 257 267 71 101 113 123 106 99 67 17 95 99 112 140 169 160 143 148 150 152 154 160 156 156 173 159 154 171 160 166 156 145 149 238 283 300 127 140 20 66 81 93 75 76 28 348 310 267
245 251 264 72 34 60 126 152 129 124 164 147 136 139 147 160 152 150 157 160 153 151 154 144 154 163 154 160 156 176 188 190 192 205 249 216 204 225 276 229 133 125 122 111 114 355 343 7 11
247 320 359 104 89 295 128 97 130 164 157 160 144 144 151 156 156 160 157 149 149 150 163 138 160 176 157 154 173 185 191 180 203 203 224 238 209 228 349 173 223 198 194 179 221 4 33 28 19
247 221 323 74 150 286 6 114 137 109 122 136 147 148 152 156 156 149 149 145 155 149 159 142 160 173 196 150 189 177 178 172 229 161 218 274 285 154 354 7 312 11 120 129 96 58 259 197 59
230 177 215 153 195 126 256 137 127 122 129 141 153 156 158 153 157 147 156 159 157 147 159 159 162 182 184 194 194 197 182 185 221 222 183 202 259 204 309 279 286 269 124 165 172 266 290 308 128
282 218 204 206 184 204 267 132 135 154 133 147 163 163 161 170 166 162 173 158 176 159 164 168 172 179 185 190 195 189 204 213 208 227 185 177 246 286 249 276 281 321 194 162 130 237 281 296 138
238 231 216 205 214 198 238 201 137 149 146 160 174 175 165 201 167 170 173 169 173 170 161 171 184 180 182 187 193 203 208 203 188 157 215 193 220 254 265 284 264 274 243 204 218 232 256 281 294
240 225 240 186 169 226 209 148 145 175 162 169 163 171 174 191 183 173 178 177 170 175 163 171 185 176 179 189 195 215 207 199 234 244 212 185 222 238 254 290 262 234 253 215 225 231 258 278 283
214 234 245 204 175 243 229 139 154 183 181 149 163 166 189 179 208 163 204 188 187 178 170 172 181 192 180 181 199 207 217 218 232 247 214 222 222 241 233 268 251 245 260 237 224 225 251 268 257
208 219 242 217 183 195 251 179 157 172 195 159 166 173 188 177 183 160 209 190 183 187 180 177 179 185 174 178 192 211 207 222 219 226 245 204 221 218 231 250 264 223 259 253 226 234 260 279 264
246 253 214 244 166 183 251 222 154 163 191 196 164 180 188 173 178 172 193 194 199 196 183 188 183 187 182 185 197 209 200 227 211 212 200 204 216 250 247 270 247 258 245 251 230 230 252 253 251
241 253 267 164 142 226 250 201 197 164 191 207 176 183 184 168 169 175 190 203 195 196 194 187 187 184 184 192 197 202 153 181 176 180 197 228 213 235 258 247 259 280 258 268 233 231 246 270 248
252 242 243 207 168 219 230 253 187 178 186 182 205 194 204 159 179 178 185 193 204 189 186 191 182 185 185 193 185 187 195 205 105 175 147 181 190 221 237 255 254 263 266 268 253 238 238 253 266
235 245 256 207 203 236 228 238 203 189 178 190 200 187 211 175 178 197 179 179 190 175 180 180 177 179 186 194 195 189 218 245 159 131 208 229 225 235 224 220 237 246 256 264 267 251 236 240 258
226 263 214 255 226 212 238 189 5 175 196 199 189 195 184 167 170 161 180 164 185 173 172 173 177 181 185 191 198 198 205 216 143 160 218 239 231 221 215 217 230 241 249 256 251 252 244 243 248
222 225 210 218 233 228 226 212 198 163 204 160 185 177 169 156 164 172 159 173 182 177 174 175 181 183 187 188 195 198 202 195 174 189 209 232 276 207 221 219 219 234 246 256 259 252 248 241 244
208 214 225 205 223 235 232 224 157 171 170 175 187 173 154 153 163 168 166 188 179 176 176 178 180 183 185 186 191 195 199 198 202 205 217 203 233 233 1 268 249 245 251 253 257 254 251 248 248
204 228 235 282 263 250 176 141 33 275 154 171 199 136 142 162 163 182 190 193 187 177 184 179 175 180 185 187 186 193 187 202 194 203 227 212 233 241 249 273 269 261 269 260 253 255 253 254 249
219 220 253 256 270 279 217 189 233 183 145 156 158 139 152 181 54 27 13 219 77 17 359 20 174 181 185 187 184 174 197 214 232 251 260 288 278 297 288 280 274 270 268 265 262 259 260 255 255
222 232 233 255 263 288 284 63 357 175 135 176 182 154 98 98 81 52 36 313 97 139 152 186 281 181 148 140 159 169 202 217 222 265 286 306 311 313 292 289 298 293 288 279 271 268 270 265 265
248 226 250 228 218 256 65 250 132 274 224 88 105 77 100 113 105 143 219 242 148 154 176 200 213 134 131 132 143 163 191 188 275 292 295 310 322 306 305 305 311 308 307 298 288 286 280 276 276
Height
756 760 759 756 803 815 776 747 730 746 752 741 736 746 766 769 773 811 781 788 795 803 808 811 813 815 817 819 821 821 822 823 824 824 824 825 824 824 823 823 822 821 820 819 818 818 817 816 817
756 759 755 754 819 820 783 733 751 749 743 736 743 746 765 785 772 776 783 792 799 806 810 812 814 817 819 821 821 823 824 825 826 826 826 826 826 827 826 825 824 823 823 822 821 820 819 819 818
754 757 756 760 791 804 768 739 742 743 737 746 759 756 765 784 780 780 787 796 803 808 812 814 816 818 820 823 823 824 826 827 827 828 828 828 829 829 828 827 825 825 825 824 823 822 821 821 820
753 746 745 756 769 740 738 735 732 740 742 742 754 776 771 778 782 786 791 798 805 810 815 816 818 820 821 823 824 826 827 827 828 830 830 830 830 830 829 828 827 827 826 826 825 824 823 823 822
749 740 752 750 742 731 731 730 733 749 751 756 760 783 783 783 786 790 795 799 804 811 816 818 820 822 823 824 826 827 828 829 830 830 831 831 831 831 830 829 828 828 828 828 828 827 826 825 824
751 735 756 750 743 731 729 725 732 741 749 758 766 778 786 786 788 791 793 797 803 811 817 819 820 823 824 825 827 828 829 829 830 831 831 832 832 832 831 831 830 830 830 829 830 829 828 828 827
754 749 750 738 744 742 734 725 742 745 752 758 755 783 785 784 785 788 791 796 802 811 817 820 822 823 823 825 827 827 828 829 830 831 831 832 833 833 833 832 833 832 832 832 831 831 831 830 829
740 739 743 728 743 751 733 731 736 748 760 747 751 783 788 784 784 786 789 795 800 808 815 818 822 823 824 825 827 828 829 830 831 832 832 834 834 833 835 834 833 834 834 834 833 833 832 831 830
729 756 751 740 743 742 727 739 736 741 751 753 750 764 775 783 782 784 789 794 799 805 810 815 821 825 827 828 828 829 831 832 833 834 835 835 835 835 836 835 835 834 835 835 835 835 835 834 832
743 757 746 712 716 733 727 737 745 760 766 768 769 772 778 780 780 784 789 794 799 802 806 810 816 819 822 827 829 831 832 833 834 835 836 836 837 838 837 836 835 835 836 835 836 836 836 835 833
739 749 720 719 718 716 730 736 742 761 778 769 777 775 777 779 781 785 789 792 797 802 805 809 814 817 820 823 827 830 831 833 833 835 835 837 837 836 836 835 835 836 836 836 837 837 836 835 833
745 726 717 718 721 723 729 729 750 752 759 760 768 771 775 779 782 785 788 792 797 802 806 809 815 818 820 821 825 827 829 832 833 834 836 836 836 836 835 835 835 835 836 837 838 839 838 836 834
739 729 722 720 725 725 723 735 743 752 747 757 766 771 775 777 781 785 789 794 798 803 808 811 815 819 821 823 825 827 828 831 832 833 835 836 836 836 836 836 836 837 837 837 838 839 838 837 837
725 726 727 726 729 730 738 736 739 749 748 757 766 771 774 777 780 785 789 793 798 802 809 812 816 819 822 824 826 827 829 830 832 833 833 835 837 836 837 836 837 837 837 837 838 839 838 837 836
726 742 733 732 729 734 731 748 754 745 749 760 767 770 773 776 777 782 786 790 796 800 807 811 815 819 822 824 826 828 829 830 831 832 832 834 836 836 836 836 836 837 836 837 838 839 839 837 838
744 744 763 736 732 732 740 762 744 741 750 760 763 766 771 773 775 777 782 787 792 796 801 808 813 816 820 823 825 826 827 829 830 830 831 833 835 836 836 837 836 837 837 838 838 839 838 837 837
756 771 760 747 729 734 742 753 742 738 746 753 758 764 768 773 772 776 779 785 789 793 797 803 809 812 816 820 823 825 825 827 829 829 830 831 834 835 836 836 836 836 837 837 838 839 839 838 837
773 767 751 749 739 737 742 750 741 738 740 753 755 761 768 772 774 776 780 782 787 790 794 799 805 809 810 816 819 822 824 826 827 828 829 830 832 834 834 835 835 836 836 836 837 839 838 838 837
743 751 752 733 729 742 745 742 741 738 741 749 752 759 760 766 771 777 782 782 783 787 790 795 798 803 806 811 815 818 821 823 825 826 829 829 832 832 832 834 834 835 835 835 835 837 838 837 836
737 743 745 729 722 738 741 743 734 737 743 738 747 751 754 759 765 772 778 781 783 785 787 792 795 798 803 808 811 814 816 818 822 824 826 829 830 831 832 833 833 834 834 834 835 835 835 834 835
740 745 743 741 733 735 742 752 743 735 735 734 735 737 741 750 760 766 771 776 779 782 785 789 794 797 801 807 810 813 815 818 819 821 822 825 828 831 832 832 832 833 832 832 833 834 836 835 833
759 730 729 730 747 774 740 781 747 740 743 740 742 742 741 744 748 756 764 770 775 779 784 788 792 795 799 805 808 812 813 814 816 817 821 824 826 828 829 830 830 830 831 831 830 831 832 832 831
748 726 729 728 743 752 749 766 743 731 747 745 740 739 739 737 742 749 755 763 771 776 782 787 790 793 798 803 807 809 811 812 812 814 817 819 820 821 823 825 826 826 827 829 829 829 829 829 828
722 729 729 732 739 775 753 768 757 748 741 738 730 730 733 734 739 747 754 761 767 773 778 782 786 789 792 796 800 804 807 808 809 812 814 814 813 815 817 819 819 820 822 823 822 822 824 825 825
725 742 775 780 772 774 734 749 737 732 724 723 725 726 728 732 739 745 750 757 761 765 769 775 779 784 788 793 797 800 804 806 807 807 806 807 810 810 811 815 816 816 815 817 818 819 819 819 819
727 738 760 788 780 763 727 755 735 711 713 713 714 716 723 732 737 745 751 755 759 762 767 769 774 779 784 789 795 798 800 804 805 805 806 804 804 804 811 815 815 814 814 813 814 815 814 814 814
731 743 719 747 742 766 737 732 731 723 722 719 719 719 728 734 739 746 748 752 755 760 766 774 779 778 785 787 790 796 799 803 804 805 806 800 804 802 804 808 811 810 810 809 809 810 809 809 808
716 712 751 744 781 788 752 755 753 735 730 725 724 726 730 734 744 758 761 746 761 773 775 765 781 784 788 787 790 794 800 803 805 808 807 805 803 800 801 804 805 805 806 805 805 805 803 803 802
725 730 730 730 738 764 770 796 734 733 727 729 723 722 739 745 752 753 754 769 763 764 779 779 788 779 777 785 790 794 800 801 804 806 805 802 798 797 799 799 799 800 800 800 800 799 797 796 795
708 720 720 748 760 744 761 783 723 731 727 722 724 725 727 735 740 747 751 766 771 763 763 757 744 755 772 783 789 794 798 801 803 804 803 801 799 798 797 797 796 797 796 796 794 793 790 790 789